Location: Chisholm
(54.9102°N, 114.1701°W)
Time: 02:56:24
(UTC+00:00)

ISS - Pass Details

Date: 28 November 2021
Orbit: 413 x 422 km, 51.6° (Epoch: 23 January)

Event Time Altitude Azimuth Distance (km) Brightness Sun altitude
Rises 02:52:15 0° 270° (W) 2,383 1.3 -29.8°
Reaches altitude 10° 02:54:26 10° 264° (W) 1,514 -0.1 -30.1°
Enters shadow 02:55:03 14° 259° (W) 1,274 -0.6 -30.2°
